SV1BYK-4 Weather Reports


Display with metric or nautical units.
time (UTC)temp
F
wind
direction
speed
MPH
gust
MPH
rain 1hr
in
rain 24hr
in
rain mn
in
humidity
%
barometer
mb
20260906214211 85 260 1.0 2.0 0.00 0.00 0.00 36 996.3
20260906212411 85 257 0.0 2.0 0.00 0.00 0.00 35 996.1
20260906211511 85 264 0.0 2.0 0.00 0.00 0.00 35 996.0
20260906210611 85 270 0.0 2.0 0.00 0.00 0.00 36 996.0
20260906205711 85 270 0.0 2.0 0.00 0.00 0.00 36 996.0
20260906204811 85 275 0.0 2.0 0.00 0.00 0.00 37 996.0
20260906203911 85 293 2.0 2.0 0.00 0.00 0.00 37 996.0
20260906202111 86 296 0.0 2.0 0.00 0.00 0.00 37 995.9
20260906195411 87 220 1.0 4.0 0.00 0.00 0.00 35 995.7
20260906194511 87 214 2.0 4.0 0.00 0.00 0.00 37 995.7
20260906192711 86 136 1.0 2.0 0.00 0.00 0.00 39 995.2
20260906191811 87 252 2.0 4.0 0.00 0.00 0.00 40 995.2
20260906190011 87 267 1.0 6.0 0.00 0.00 0.00 41 995.2
20260906185111 87 261 1.0 4.0 0.00 0.00 0.00 41 995.0
20260906184211 87 276 2.0 4.0 0.00 0.00 0.00 41 994.7
20260906183311 87 314 2.0 4.0 0.00 0.00 0.00 40 994.6
20260906182411 88 283 2.0 7.0 0.00 0.00 0.00 40 994.4
20260906181511 88 253 2.0 4.0 0.00 0.00 0.00 39 994.2
20260906180611 89 237 1.0 4.0 0.00 0.00 0.00 38 994.1
20260906175711 89 241 2.0 4.0 0.00 0.00 0.00 38 993.8
20260906174811 90 221 1.0 4.0 0.00 0.00 0.00 36 993.6
20260906173911 90 229 0.0 2.0 0.00 0.00 0.00 34 993.5
20260906173011 90 242 1.0 4.0 0.00 0.00 0.00 33 993.3
20260906171211 90 222 0.0 4.0 0.00 0.00 0.00 36 992.9
20260906170311 90 167 0.0 2.0 0.00 0.00 0.00 41 992.8
20260906165411 90 158 0.0 2.0 0.00 0.00 0.00 42 992.8
20260906164511 91 158 2.0 2.0 0.00 0.00 0.00 41 992.8
20260906163611 92 182 0.0 2.0 0.00 0.00 0.00 38 992.7
20260906162711 94 242 1.0 4.0 0.00 0.00 0.00 36 992.8
20260906161811 94 240 2.0 4.0 0.00 0.00 0.00 34 992.9
20260906160911 94 120 1.0 4.0 0.00 0.00 0.00 35 992.9
20260906155111 95 126 1.0 4.0 0.00 0.00 0.00 33 992.9
20260906154211 95 105 2.0 6.0 0.00 0.00 0.00 33 992.8
20260906153311 95 174 2.0 6.0 0.00 0.00 0.00 32 992.9
20260906152411 96 198 3.0 7.0 0.00 0.00 0.00 32 992.9
20260906151511 96 139 2.0 7.0 0.00 0.00 0.00 31 992.9
20260906150611 96 157 2.0 9.0 0.00 0.00 0.00 31 993.0
20260906145711 97 206 3.0 9.0 0.00 0.00 0.00 31 992.9
20260906144811 96 105 4.0 7.0 0.00 0.00 0.00 31 993.1
20260906143911 96 111 2.0 8.0 0.00 0.00 0.00 31 993.1
20260906143011 96 135 3.0 8.0 0.00 0.00 0.00 31 993.1
20260906142111 96 125 2.0 7.0 0.00 0.00 0.00 30 993.2
20260906141211 97 95 2.0 8.0 0.00 0.00 0.00 30 993.2
20260906140311 97 173 2.0 8.0 0.00 0.00 0.00 30 993.3
20260906135411 97 126 2.0 7.0 0.00 0.00 0.00 31 993.3
20260906133611 96 121 4.0 7.0 0.00 0.00 0.00 31 993.4
20260906131811 97 132 2.0 7.0 0.00 0.00 0.00 30 993.5
20260906130911 97 101 2.0 7.0 0.00 0.00 0.00 31 993.4
20260906130011 97 131 2.0 8.0 0.00 0.00 0.00 31 993.5
20260906125111 96 122 2.0 8.0 0.00 0.00 0.00 32 993.6
20260906124211 96 239 3.0 7.0 0.00 0.00 0.00 32 993.6
20260906123311 96 103 2.0 8.0 0.00 0.00 0.00 31 993.7
20260906122411 95 169 5.0 9.0 0.00 0.00 0.00 32 993.7
20260906121511 96 221 2.0 11.0 0.00 0.00 0.00 31 993.8
20260906120611 94 152 2.0 11.0 0.00 0.00 0.00 32 993.8
20260906115711 96 115 2.0 8.0 0.00 0.00 0.00 31 993.9
20260906114811 94 106 4.0 8.0 0.00 0.00 0.00 34 993.9
20260906113911 94 102 4.0 11.0 0.00 0.00 0.00 33 993.8
20260906111211 101 193 2.0 4.0 0.00 0.00 0.00 24 993.8
20260906110311 99 116 2.0 7.0 0.00 0.00 0.00 24 993.6
20260906105411 99 253 1.0 8.0 0.00 0.00 0.00 24 993.7
20260906103611 98 76 2.0 7.0 0.00 0.00 0.00 24 993.7
20260906102711 98 286 1.0 4.0 0.00 0.00 0.00 25 993.7
20260906101811 98 284 1.0 4.0 0.00 0.00 0.00 25 993.9
20260906100911 96 285 3.0 8.0 0.00 0.00 0.00 26 993.9
20260906100012 97 302 2.0 7.0 0.00 0.00 0.00 25 993.9
20260906095111 97 105 1.0 4.0 0.00 0.00 0.00 26 993.9
20260906094211 98 314 0.0 8.0 0.00 0.00 0.00 25 994.1
20260906093311 94 289 4.0 8.0 0.00 0.00 0.00 28 994.1
20260906091511 98 257 0.0 4.0 0.00 0.00 0.00 25 994.2
20260906090611 94 173 3.0 4.0 0.00 0.00 0.00 27 994.2
20260906085711 94 268 1.0 6.0 0.00 0.00 0.00 27 994.4
20260906084811 94 172 2.0 4.0 0.00 0.00 0.00 27 994.3
20260906083911 96 114 2.0 4.0 0.00 0.00 0.00 26 994.3
20260906081211 94 107 2.0 4.0 0.00 0.00 0.00 27 994.3
20260906080311 95 98 0.0 2.0 0.00 0.00 0.00 26 994.4
20260906075411 95 118 1.0 4.0 0.00 0.00 0.00 26 994.4
20260906074511 93 100 2.0 4.0 0.00 0.00 0.00 27 994.3
20260906072711 93 248 1.0 2.0 0.00 0.00 0.00 28 994.3
20260906070911 91 248 0.0 2.0 0.00 0.00 0.00 30 994.2
20260906065111 88 248 0.0 2.0 0.00 0.00 0.00 31 994.0
20260906064211 87 248 0.0 2.0 0.00 0.00 0.00 32 994.0
20260906063311 87 248 0.0 2.0 0.00 0.00 0.00 32 993.8
20260906061511 85 270 0.0 2.0 0.00 0.00 0.00 35 993.7
20260906060611 84 292 0.0 2.0 0.00 0.00 0.00 36 993.6
20260906055711 82 281 0.0 2.0 0.00 0.00 0.00 37 993.6
20260906053911 82 292 0.0 2.0 0.00 0.00 0.00 38 993.5
20260906053011 81 281 0.0 4.0 0.00 0.00 0.00 38 993.6
20260906052111 80 289 0.0 4.0 0.00 0.00 0.00 38 993.6
20260906051211 78 301 2.0 4.0 0.00 0.00 0.00 39 993.6
20260906050311 77 285 1.0 4.0 0.00 0.00 0.00 41 993.7
20260906045411 76 259 0.0 2.0 0.00 0.00 0.00 41 993.7
20260906044512 76 248 0.0 2.0 0.00 0.00 0.00 41 993.7
20260906043611 75 248 0.0 2.0 0.00 0.00 0.00 41 993.6
20260906042711 75 248 0.0 2.0 0.00 0.00 0.00 41 993.4
20260906041811 75 248 0.0 2.0 0.00 0.00 0.00 41 993.4
20260906040011 75 254 0.0 2.0 0.00 0.00 0.00 41 993.2
20260906035111 75 251 0.0 2.0 0.00 0.00 0.00 41 993.2
20260906034211 75 237 1.0 2.0 0.00 0.00 0.00 41 993.1
20260906032411 75 225 0.0 2.0 0.00 0.00 0.00 41 992.9
20260906031511 75 237 0.0 2.0 0.00 0.00 0.00 41 992.9
20260906030611 76 249 0.0 2.0 0.00 0.00 0.00 41 992.8
20260906025711 75 248 0.0 2.0 0.00 0.00 0.00 41 992.9
20260906024811 76 248 1.0 2.0 0.00 0.00 0.00 41 992.6
20260906023911 76 248 0.0 2.0 0.00 0.00 0.00 41 992.5
20260906022111 76 241 0.0 2.0 0.00 0.00 0.00 41 992.4
20260906021211 76 248 0.0 2.0 0.00 0.00 0.00 41 992.5
20260906020311 76 245 1.0 2.0 0.00 0.00 0.00 40 992.5
20260906014511 76 255 0.0 2.0 0.00 0.00 0.00 40 992.5
20260906013611 76 246 0.0 2.0 0.00 0.00 0.00 40 992.6
20260906012711 76 0 0.0 0.0 0.00 0.00 0.00 40 992.5
20260906011811 76 0 0.0 0.0 0.00 0.00 0.00 40 992.6
20260906010911 76 270 0.0 2.0 0.00 0.00 0.00 40 992.7
20260906010011 77 270 0.0 2.0 0.00 0.00 0.00 40 992.7
20260906005111 77 270 0.0 4.0 0.00 0.00 0.00 39 992.7
20260906004211 77 270 2.0 4.0 0.00 0.00 0.00 40 992.6
20260906003311 77 270 0.0 2.0 0.00 0.00 0.00 39 992.6
20260906001511 77 267 0.0 2.0 0.00 0.00 0.00 39 992.6
20260906000611 77 270 0.0 2.0 0.00 0.00 0.00 39 992.6
20260905235711 77 255 1.0 2.0 0.00 0.00 0.00 39 992.7
20260905233911 78 241 0.0 2.0 0.00 0.00 0.00 39 992.7
20260905233011 78 248 0.0 2.0 0.00 0.00 0.00 39 992.7
20260905232111 79 241 0.0 2.0 0.00 0.00 0.00 38 992.9
20260905230311 79 225 3.0 4.0 0.00 0.00 0.00 38 993.0
20260905225411 78 225 0.0 2.0 0.00 0.00 0.00 39 993.0
20260905224511 79 230 0.0 2.0 0.00 0.00 0.00 38 993.1
20260905223611 79 248 0.0 2.0 0.00 0.00 0.00 38 993.2
20260905222711 79 248 0.0 2.0 0.00 0.00 0.00 38 993.2
20260905221811 79 0 0.0 0.0 0.00 0.00 0.00 38 993.0
20260905220911 79 0 0.0 0.0 0.00 0.00 0.00 38 993.0
20260905220011 79 248 0.0 2.0 0.00 0.00 0.00 38 993.1